sat.trackr.live / text

‹ back to catalog

KUIPER-00028

NORAD 63741 · 2025-088T

PAYLOAD ACTIVE UNKNOWN

§ Identity

Operator
Country
US
Launch date
2025-04-28
Launch site
AFETR
Launch vehicle
Mass (kg)
RCS (m²)

External: N2YO · Heavens-Above · Gunter

§ Orbital elements

Epoch: 2026-05-25T04:59:47.137344Z

Period
97.30 min
Inclination
51.8997°
Eccentricity
0.0000678
Mean motion
14.79944818 rev/d
Perigee alt
629.0 km
Apogee alt
630.0 km
Semi-major
7,007.6 km
B*
1.7996e-4
RAAN
114.6854°
Arg perigee
66.5915°
Mean anomaly
293.5119°
Rev number
5,939

§ Raw data

KUIPER-000281 63741U 25088T   26145.20818446  .00001151  00000+0  17996-3 0  99972 63741  51.8997 114.6854 0000678  66.5915 293.5119 14.79944818 59395

JSON: /api/v1/satellites/63741 · /tle

For live sub-satellite position, see the globe view (requires WebGL).

§ Visibility from observer

Set your observer location to see the next 7 days of passes ≥ 10°. The values pass through the URL so the page stays shareable.

No JS? Fill the form by hand. The geolocation button needs JavaScript.